Location: Unspecified
(40.7945°N, 111.1337°W)
Time: 02:26:33
(UTC-06:00)

Altair - Pass Details

Date: 01 July 2019
Orbit: 1501 x 1683 km, 47.2° (Epoch: 24 July)

Event Time Altitude Azimuth Distance (km) Brightness Sun altitude
Rises 01:15:53 0° 298° (WNW) 4,798 10.5 -26.0°
Reaches altitude 10° 01:19:01 10° 294° (WNW) 3,834 9.9 -26.0°
Maximum altitude 01:28:30 57° 220° (SW) 1,897 7.6 -26.1°
Enters shadow 01:31:33 43° 171° (S) 2,190 7.8 -26.1°
